Regional Weather Roundup
Issued by NWS

Home | Current Version | Previous Version | Graphics & Text | Print | Product List | Glossary On
Versions: 1 2 3 4 5 6 7 8 9 10 11 12 13 14 15 16 17 18 19 20 21 22 23 24 25 26 27 28 29 30 31 32 33 34 35 36 37 38 39 40 41 42 43 44 45 46 47 48 49 50
000
ASUS45 KCYS 241710
RWRWY

WYOMING REGIONAL WEATHER ROUNDUP
NATIONAL WEATHER SERVICE CHEYENNE WY
1100 AM MDT FRI APR 24 2015

NOTE:  "FAIR" INDICATES FEW OR NO CLOUDS BELOW 12,000 FEET
WITH NO SIGNIFICANT WEATHER AND/OR OBSTRUCTIONS TO VISIBILITY.

WYZ001-241800-
YELLOWSTONE NATIONAL PARK

CITY           SKY/WX    TMP DP  RH WIND       PRES   REMARKS
LK YELLOWSTONE   N/A     41  25  53 VRB3      29.77F
W YELLOWSTONE  NOT AVBL

$$
WYZ002>013-054>058-071-098>099-241800-
NORTHERN WYOMING

CITY           SKY/WX    TMP DP  RH WIND       PRES   REMARKS
JACKSON        SUNNY     46  34  61 SW5       29.74F
CODY           FAIR      59  25  27 SW8       29.63F
GREYBULL       FAIR      61  39  44 CALM      29.62F
WORLAND        FAIR      58  43  57 VRB5      29.63F
SHERIDAN       FAIR      61  43  51 NE9       29.61F
BUFFALO        FAIR      64  36  35 NE9       29.65S
GILLETTE       PTSUNNY   59  39  47 CALM      29.63F
HULETT         CLOUDY    63  37  39 NE6       29.65F
NEWCASTLE      FAIR      59  37  44 CALM      29.64F

$$
WYZ014>020-022>026-101>103-241800-
CENTRAL WYOMING

CITY           SKY/WX    TMP DP  RH WIND       PRES   REMARKS
BIG PINEY      PTSUNNY   46  34  62 W6        29.79S
PINEDALE       FAIR      46  32  57 SE3       29.79S
DUBOIS         FAIR      50  19  29 W22       29.71S
LANDER         FAIR      57  31  37 SE6       29.67F
RIVERTON       FAIR      58  23  26 VRB5      29.68F
CASPER         FAIR      59  33  37 SW13      29.68F
DOUGLAS        FAIR      62  35  36 W20       29.66F

$$
WYZ021-027>030-104>119-241800-
SOUTHERN WYOMING

CITY           SKY/WX    TMP DP  RH WIND       PRES   REMARKS
EVANSTON       FAIR      52  31  44 SW18G28   29.78F
KEMMERER       PTSUNNY   46  32  57 W17G23    29.79S
FORT BRIDGER   PTSUNNY   54  28  37 W18G24    29.80S
ROCK SPRINGS   FAIR      53  30  41 W14       29.77S
DIXON          FAIR      57  29  34 S14       29.79F
RAWLINS        FAIR      55  28  35 W16       29.75F
SARATOGA       FAIR      55  28  35 W17G25    29.76F
LARAMIE        FAIR      53  29  39 SW17G24   29.74F
CHEYENNE       FAIR      60  27  28 W16G25    29.71F
TORRINGTON     FAIR      64  38  38 CALM      29.63F
PINE BLUFFS    FAIR      63  28  27 W15       29.68F

$$



USA.gov is the U.S. government's official web portal to all federal, state and local government web resources and services.